Flag for Austria Weather past 2 weeks in Telfs, Tyrol, Austria

Now
59 °F

Fog.


Feels Like: 59 °F
Forecast: 56 / 72 °F
Wind: 5 mph from East

Location: Altenstadt Airport

Current Time: Jul 23, 2014 at 10:39:30 AM

Latest Report: Jul 23, 2014 at 9:20 AM


Visibility: 0 mi

Pressure: 30.04 "Hg

Humidity: 100%

Dew point: 59 °F

Location of TelfsLocation

Historic Weather in Telfs — Graph

°F

Telfs temperature yesterday

Maximum temperature yesterday: 64 °F (at 12:20 PM)
Minimum temperature yesterday: 57 °F (at 12:20 AM)
Average temperature yesterday: 61 °F

Past Weeks' High & Low Weather Summary

 TemperatureHumidityPressure
High86 °F (Jul 19, 3:20 PM)100% (Jul 8, 8:20 PM)30.24 "Hg (Jul 8, 8:20 PM)
Low48 °F (Jul 9, 9:20 PM)29% (Jul 19, 5:20 PM)29.80 "Hg (Jul 10, 5:20 AM)
Average62 °F79%30.00 "Hg
* Reported Jul 8 7:20 AM — Jul 23 7:20 AM, Telfs, Weather by CustomWeather, © 2014

Note: Actual official high and low records may vary slightly from our data, if they occured in-between our weather recording intervals... More about our weather records

Advertising

Telfs weather history for previous 24 hours

 ConditionsComfort  
Time TempWeatherWind HumidityBarometerVisibility
7:20 AM
Jul 23
57 °FFog.3 mph100%30.04 "Hg0 mi
6:55 AM57 °FFog.3 mph100%30.04 "Hg0 mi
6:20 AM55 °FFog.2 mph100%30.04 "Hg1 mi
5:20 AM55 °FFog.3 mph100%30.04 "Hg0 mi
4:20 AM55 °FCool.5 mph100%30.04 "HgN/A
3:20 AM57 °FCool.3 mph100%30.04 "HgN/A
2:20 AM57 °FCool.2 mph100%30.04 "HgN/A
1:20 AM57 °FCool.2 mph100%30.04 "HgN/A
6:45 PM
Jul 22
63 °FLight rain. Partly sunny.3 mph100%29.98 "HgN/A
6:20 PM63 °FLight rain. Partly sunny.3 mph100%29.98 "HgN/A
5:20 PM63 °FHeavy rain. Broken clouds.2 mph94%29.98 "Hg4 mi
5:04 PM63 °FRain showers. Broken clouds.2 mph94%29.98 "Hg3 mi
4:56 PM63 °FLots of rain. Partly sunny.3 mph94%29.98 "Hg2 mi
4:20 PM63 °FLots of rain. Partly sunny.3 mph94%29.98 "Hg2 mi
4:00 PM64 °FRain. Broken clouds.3 mph88%29.98 "Hg3 mi
3:20 PM64 °FLight rain. Partly sunny.5 mph88%29.98 "HgN/A
2:20 PM64 °FLight rain. Broken clouds.5 mph88%29.98 "HgN/A
2:03 PM64 °FRain. Broken clouds.6 mph88%29.98 "HgN/A
1:20 PM64 °FBroken clouds.6 mph88%29.95 "HgN/A
12:20 PM64 °FLight rain. Partly sunny.5 mph83%29.95 "HgN/A
11:20 AM63 °FLight rain. Partly sunny.5 mph88%29.95 "HgN/A
10:20 AM63 °FLight rain. Partly sunny.10 mph88%29.92 "HgN/A
Weather by CustomWeather, © 2014

See weather overviewHow to use our weather pages